Location: Arrodets-la-Barthe
(43.0306°N, 0.2829°E)
Time: 01:39:19
(UTC+00:00)

Cosmos 2344 - Pass Details

Date: 29 May 2022
Orbit: 1228 x 3015 km, 63.3° (Epoch: 04 July)

Event Time Altitude Azimuth Distance (km) Brightness Sun altitude
Rises 02:55:37 0° 322° (NW) 4,369 6.5 -13.3°
Reaches altitude 10° 02:58:28 10° 330° (NNW) 3,521 6.1 -13.0°
Maximum altitude 03:06:33 40° 39° (NE) 2,337 5.6 -12.0°
Drops below altitude 10° 03:17:17 10° 107° (ESE) 4,673 6.9 -10.6°
Sets 03:21:41 0° 114° (ESE) 5,950 7.4 -10.0°
